W4SNA-4 Weather Reports


Display with metric or nautical units.
time (UTC)temp
F
wind
direction
speed
MPH
gust
MPH
rain 1hr
in
rain 24hr
in
rain mn
in
humidity
%
barometer
mb
20260503202330 64 0 0.0 0.0 0.00 0.00 0.00 37 1011.9
20260503201831 64 0 0.0 0.0 0.00 0.00 0.00 39 1011.9
20260503201331 64 0 0.0 0.0 0.00 0.00 0.00 37 1011.9
20260503200831 64 0 0.0 0.0 0.00 0.00 0.00 36 1012.0
20260503200337 64 0 0.0 0.0 0.00 0.00 0.00 37 1012.0
20260503195832 64 0 0.0 0.0 0.00 0.00 0.00 38 1012.0
20260503195335 64 0 0.0 0.0 0.00 0.00 0.00 36 1012.2
20260503194831 64 0 0.0 0.0 0.00 0.00 0.00 38 1012.2
20260503194331 64 0 0.0 0.0 0.00 0.00 0.00 38 1012.2
20260503193831 64 0 0.0 0.0 0.00 0.00 0.00 37 1012.5
20260503193331 63 0 0.0 0.0 0.00 0.00 0.00 38 1012.5
20260503192834 63 0 0.0 0.0 0.00 0.00 0.00 39 1012.5
20260503192331 63 0 0.0 0.0 0.00 0.00 0.00 39 1012.6
20260503191831 63 0 0.0 0.0 0.00 0.00 0.00 39 1012.6
20260503191337 63 0 0.0 0.0 0.00 0.00 0.00 36 1012.6
20260503190833 64 0 0.0 0.0 0.00 0.00 0.00 39 1012.9
20260503190334 64 0 0.0 0.0 0.00 0.00 0.00 40 1012.9
20260503185833 63 0 0.0 0.0 0.00 0.00 0.00 39 1012.9
20260503185333 63 0 0.0 0.0 0.00 0.00 0.00 39 1013.1
20260503184835 63 0 0.0 0.0 0.00 0.00 0.00 35 1013.1
20260503184331 63 0 0.0 0.0 0.00 0.00 0.00 39 1013.1
20260503183831 63 0 0.0 0.0 0.00 0.00 0.00 39 1013.1
20260503183330 62 0 0.0 0.0 0.00 0.00 0.00 41 1013.1
20260503182513 62 0 0.0 1.0 0.00 0.00 0.00 40 1013.1
20260503182011 62 0 0.0 0.0 0.00 0.00 0.00 41 1013.6
20260503181508 62 0 0.0 0.0 0.00 0.00 0.00 36 1013.6
20260503181008 62 0 0.0 0.0 0.00 0.00 0.00 39 1013.6
20260503180510 62 0 0.0 0.0 0.00 0.00 0.00 39 1013.7
20260503180013 61 0 0.0 1.0 0.00 0.00 0.00 37 1013.7
20260503175509 61 0 0.0 1.0 0.00 0.00 0.00 40 1013.7
20260503175008 61 0 0.0 0.0 0.00 0.00 0.00 38 1013.7
20260503174513 61 0 0.0 0.0 0.00 0.00 0.00 39 1013.7
20260503174009 61 0 0.0 0.0 0.00 0.00 0.00 41 1013.7
20260503173508 61 0 0.0 0.0 0.00 0.00 0.00 37 1013.8
20260503173008 61 0 0.0 0.0 0.00 0.00 0.00 40 1013.8
20260503172508 61 0 0.0 0.0 0.00 0.00 0.00 39 1013.8
20260503172008 60 0 0.0 0.0 0.00 0.00 0.00 39 1014.1
20260503171514 60 0 0.0 0.0 0.00 0.00 0.00 39 1014.1
20260503171008 60 0 0.0 0.0 0.00 0.00 0.00 39 1014.1
20260503170508 60 0 0.0 0.0 0.00 0.00 0.00 40 1014.4
20260503150607 56 0 0.0 0.0 0.00 0.00 0.00 48 1015.1
20260503150106 56 0 0.0 2.0 0.00 0.00 0.00 47 1015.1
20260503140108 52 0 0.0 0.0 0.00 0.00 0.00 55 1014.8
20260503131108 49 0 0.0 1.0 0.00 0.00 0.00 58 1014.6
20260503130609 49 0 0.0 1.0 0.00 0.00 0.00 60 1014.6
20260503130106 48 0 0.0 1.0 0.00 0.00 0.00 69 1014.6
20260503120114 46 0 0.0 0.0 0.00 0.00 0.00 68 1014.2
20260503110606 44 0 0.0 0.0 0.00 0.00 0.00 69 1013.5
20260503110107 44 0 0.0 0.0 0.00 0.00 0.00 69 1013.5
20260503100106 45 0 0.0 0.0 0.00 0.00 0.00 66 1012.4
20260503090106 45 0 0.0 0.0 0.00 0.00 0.00 66 1011.9
20260503081334 46 0 0.0 0.0 0.00 0.00 0.00 65 1011.6
20260503080834 46 0 0.0 0.0 0.00 0.00 0.00 65 1011.5
20260503080333 46 0 0.0 0.0 0.00 0.00 0.00 65 1011.5
20260503072834 46 0 0.0 0.0 0.00 0.00 0.00 64 1011.3
20260503072337 46 0 0.0 0.0 0.00 0.00 0.00 64 1011.0
20260503071834 46 0 0.0 2.0 0.00 0.00 0.00 64 1011.0
20260503071335 47 0 0.0 2.0 0.00 0.00 0.00 63 1011.0
20260503070834 47 0 0.0 1.0 0.00 0.00 0.00 63 1010.9
20260503070334 47 0 0.0 1.0 0.00 0.00 0.00 62 1010.9
20260503060333 48 0 0.0 1.0 0.00 0.00 0.00 59 1010.7
20260503054833 49 0 0.0 0.0 0.00 0.00 0.00 58 1010.7
20260503054334 49 0 0.0 0.0 0.00 0.00 0.00 58 1010.7
20260503053833 49 0 0.0 0.0 0.00 0.00 0.00 58 1010.7
20260503053334 49 0 0.0 2.0 0.00 0.00 0.00 58 1010.7
20260503052834 49 0 0.0 2.0 0.00 0.00 0.00 59 1010.7
20260503052333 49 0 0.0 1.0 0.00 0.00 0.00 58 1010.6
20260503051837 49 0 0.0 0.0 0.00 0.00 0.00 58 1010.6
20260503051334 50 0 0.0 1.0 0.00 0.00 0.00 58 1010.6
20260503050833 50 0 0.0 1.0 0.00 0.00 0.00 57 1010.5
20260503050334 50 0 0.0 0.0 0.00 0.00 0.00 57 1010.5
20260503045834 50 0 0.0 0.0 0.00 0.00 0.00 57 1010.5
20260503045333 50 0 0.0 0.0 0.00 0.00 0.00 57 1010.4
20260503044834 50 0 0.0 0.0 0.00 0.00 0.00 56 1010.4
20260503044334 50 0 0.0 0.0 0.00 0.00 0.00 56 1010.4
20260503043833 51 0 0.0 0.0 0.00 0.00 0.00 56 1010.3
20260503043334 51 0 0.0 1.0 0.00 0.00 0.00 55 1010.3
20260503042836 51 0 0.0 1.0 0.00 0.00 0.00 56 1010.3
20260503042338 51 0 0.0 0.0 0.00 0.00 0.00 56 1010.3
20260503041834 51 0 0.0 0.0 0.00 0.00 0.00 55 1010.3
20260503041333 51 0 0.0 0.0 0.00 0.00 0.00 56 1010.3
20260503040834 51 0 0.0 0.0 0.00 0.00 0.00 56 1010.1
20260503040334 51 0 0.0 0.0 0.00 0.00 0.00 56 1010.1
20260503035836 51 0 0.0 0.0 0.00 0.00 0.00 56 1010.1
20260503035334 51 0 0.0 0.0 0.00 0.00 0.00 56 1009.9
20260503034833 51 0 0.0 0.0 0.00 0.00 0.00 56 1009.9
20260503034334 51 0 0.0 0.0 0.00 0.00 0.00 56 1009.9
20260503033834 51 0 0.0 0.0 0.00 0.00 0.00 56 1009.8
20260503033300 52 0 0.0 1.0 0.00 0.00 0.00 56 1009.8
20260503032801 52 0 0.0 0.0 0.00 0.00 0.00 56 1009.8
20260503032300 52 0 0.0 0.0 0.00 0.00 0.00 56 1009.8
20260503031800 52 0 0.0 0.0 0.00 0.00 0.00 56 1009.8
20260503031302 52 0 0.0 0.0 0.00 0.00 0.00 56 1009.8
20260503030757 52 0 0.0 0.0 0.00 0.00 0.00 56 1009.8
20260503030301 52 0 0.0 0.0 0.00 0.00 0.00 55 1009.8
20260503025753 52 0 0.0 0.0 0.00 0.00 0.00 56 1009.8
20260503025259 53 0 0.0 2.0 0.00 0.00 0.00 56 1009.7
20260503024752 53 0 0.0 2.0 0.00 0.00 0.00 55 1009.7
20260503024259 53 0 0.0 0.0 0.00 0.00 0.00 55 1009.7
20260503023753 53 0 0.0 0.0 0.00 0.00 0.00 54 1009.7
20260503023259 54 0 0.0 0.0 0.00 0.00 0.00 55 1009.7
20260503022753 54 0 0.0 0.0 0.00 0.00 0.00 54 1009.7
20260503022259 54 0 0.0 0.0 0.00 0.00 0.00 53 1009.4
20260503021759 54 0 0.0 0.0 0.00 0.00 0.00 53 1009.4
20260503021300 54 0 0.0 0.0 0.00 0.00 0.00 53 1009.4
20260503020753 54 0 0.0 0.0 0.00 0.00 0.00 55 1009.2
20260503020258 54 0 0.0 2.0 0.00 0.00 0.00 55 1009.2
20260503015753 54 0 0.0 2.0 0.00 0.00 0.00 56 1009.2
20260503015259 54 0 0.0 1.0 0.00 0.00 0.00 56 1009.1
20260503014753 54 0 0.0 3.0 0.00 0.00 0.00 56 1009.1
20260503014253 55 0 0.0 3.0 0.00 0.00 0.00 57 1009.1
20260503013753 55 0 0.0 0.0 0.00 0.00 0.00 57 1008.7
20260503013253 55 0 0.0 3.0 0.00 0.00 0.00 57 1008.7
20260503012753 55 0 0.0 3.0 0.00 0.00 0.00 59 1008.7
20260503012305 55 0 0.0 1.0 0.00 0.00 0.00 61 1008.6
20260503011753 56 0 0.0 1.0 0.00 0.00 0.00 62 1008.6
20260503011259 56 0 0.0 0.0 0.00 0.00 0.00 59 1008.6
20260503010752 56 0 0.0 0.0 0.00 0.00 0.00 59 1008.5
20260503010301 56 0 0.0 0.0 0.00 0.00 0.00 59 1008.5
20260503005753 56 0 0.0 0.0 0.00 0.00 0.00 59 1008.5
20260503005259 56 0 0.0 0.0 0.00 0.00 0.00 57 1008.1
20260503004753 56 0 0.0 0.0 0.00 0.00 0.00 57 1008.1
20260503004301 56 0 0.0 0.0 0.00 0.00 0.00 56 1008.1
20260503003759 56 0 0.0 0.0 0.00 0.00 0.00 54 1007.7
20260503003310 56 0 0.0 0.0 0.00 0.00 0.00 53 1007.7
20260503002753 56 0 0.0 0.0 0.00 0.00 0.00 53 1007.7
20260503002300 56 0 0.0 0.0 0.00 0.00 0.00 53 1007.6
20260503001753 56 0 0.0 0.0 0.00 0.00 0.00 53 1007.6
20260503001300 56 0 0.0 0.0 0.00 0.00 0.00 54 1007.6
20260503000755 56 0 0.0 0.0 0.00 0.00 0.00 55 1007.5
20260503000300 56 0 0.0 0.0 0.00 0.00 0.00 56 1007.5
20260502235655 57 0 0.0 0.0 0.00 0.00 0.00 55 1007.5
20260502235155 57 0 0.0 0.0 0.00 0.00 0.00 56 1007.1
20260502234655 57 0 0.0 0.0 0.00 0.00 0.00 55 1007.1
20260502234152 57 0 0.0 0.0 0.00 0.00 0.00 55 1007.1
20260502233656 57 0 0.0 0.0 0.00 0.00 0.00 54 1006.9
20260502232757 58 0 0.0 0.0 0.00 0.00 0.00 54 1006.9
20260502232300 58 0 0.0 0.0 0.00 0.00 0.00 53 1006.6
20260502231800 58 0 0.0 0.0 0.00 0.00 0.00 52 1006.6
20260502231604 58 0 0.0 0.0 0.00 0.00 0.00 51 1006.6
20260502231259 58 0 0.0 0.0 0.00 0.00 0.00 51 1006.6
20260502230758 58 0 0.0 0.0 0.00 0.00 0.00 50 1006.5
20260502230300 58 0 0.0 0.0 0.00 0.00 0.00 49 1006.5
20260502225759 58 0 0.0 0.0 0.00 0.00 0.00 51 1006.5
20260502225300 59 0 0.0 0.0 0.00 0.00 0.00 51 1006.4
20260502224758 59 0 0.0 0.0 0.00 0.00 0.00 53 1006.4
20260502224301 59 0 0.0 0.0 0.00 0.00 0.00 51 1006.4
20260502223800 59 0 0.0 0.0 0.00 0.00 0.00 51 1006.4
20260502223259 59 0 0.0 0.0 0.00 0.00 0.00 49 1006.4
20260502222758 59 0 0.0 0.0 0.00 0.00 0.00 50 1006.4
20260502222300 59 0 0.0 0.0 0.00 0.00 0.00 51 1006.2
20260502221801 59 0 0.0 0.0 0.00 0.00 0.00 51 1006.2
20260502221300 59 0 0.0 0.0 0.00 0.00 0.00 48 1006.2
20260502220758 59 0 0.0 0.0 0.00 0.00 0.00 51 1005.9
20260502220259 59 0 0.0 0.0 0.00 0.00 0.00 51 1005.9
20260502215759 59 0 0.0 0.0 0.00 0.00 0.00 50 1005.9
20260502215300 59 0 0.0 0.0 0.00 0.00 0.00 50 1005.9
20260502214757 59 0 0.0 0.0 0.00 0.00 0.00 50 1005.9
20260502213814 59 0 0.0 0.0 0.00 0.00 0.00 51 1005.9
20260502213315 59 0 0.0 0.0 0.00 0.00 0.00 50 1005.9
20260502212814 59 0 0.0 0.0 0.00 0.00 0.00 48 1005.9
20260502212314 59 0 0.0 0.0 0.00 0.00 0.00 48 1005.9
20260502211817 59 0 0.0 0.0 0.00 0.00 0.00 48 1005.9
20260502211323 59 0 0.0 0.0 0.00 0.00 0.00 48 1005.9
20260502210813 59 0 0.0 0.0 0.00 0.00 0.00 49 1005.9
20260502210315 59 0 0.0 0.0 0.00 0.00 0.00 48 1005.9
20260502205813 59 0 0.0 0.0 0.00 0.00 0.00 52 1005.9
20260502205314 59 0 0.0 0.0 0.00 0.00 0.00 50 1005.9
20260502204813 59 0 0.0 0.0 0.00 0.00 0.00 48 1005.9
20260502204322 59 0 0.0 0.0 0.00 0.00 0.00 49 1005.9
20260502203616 59 0 0.0 0.0 0.00 0.00 0.00 52 1006.0
20260502203117 59 0 0.0 0.0 0.00 0.00 0.00 52 1006.0
20260502202617 59 0 0.0 0.0 0.00 0.00 0.00 52 1006.0